Total_Precipitation_Accumulation
2.43 2.85 3.56 4.60 5.15 5.82 5.70 5.29 4.99 4.77 4.73 4.71 4.73 4.68 4.73 4.89 5.02 4.93 4.70 4.67 4.52 4.63 4.90 4.72 4.67 4.42 4.33 4.38 4.36 4.22 4.12 3.92 3.78 3.67 3.30 2.76 2.33 2.16 2.03 2.04 2.13 2.11 2.03
2.59 3.25 3.83 4.43 4.87 5.03 5.19 5.41 5.36 5.29 5.04 5.04 5.32 5.66 5.86 5.71 5.71 5.66 5.67 5.49 5.30 5.27 5.24 5.18 4.83 4.62 4.48 4.32 4.20 4.08 3.99 3.74 3.67 3.78 3.78 3.26 2.86 2.34 1.88 1.99 2.01 2.03 2.06
2.33 3.01 3.55 3.99 4.53 4.89 4.97 5.25 5.29 5.47 5.76 5.99 6.09 6.37 6.59 6.38 6.15 5.81 5.67 5.45 5.18 5.13 5.05 4.97 4.77 4.60 4.36 4.21 4.15 4.05 3.97 3.78 3.67 3.71 3.95 3.74 3.17 2.59 2.14 1.95 1.95 2.02 2.05
2.30 2.61 3.04 3.37 3.79 4.15 4.45 4.85 5.04 5.24 5.83 6.60 6.87 6.85 6.90 6.71 6.34 6.01 5.71 5.41 5.09 4.82 4.67 4.73 4.66 4.50 4.23 4.06 3.72 3.69 3.80 3.95 3.73 3.57 3.33 3.17 2.94 2.87 2.65 2.33 2.13 2.03 1.99
2.14 2.31 2.46 2.85 3.40 3.65 3.90 4.41 4.82 5.28 5.93 6.47 6.83 7.05 6.91 6.62 6.30 5.84 5.51 5.21 4.84 4.45 4.18 4.22 4.15 3.98 3.78 3.65 3.42 3.38 3.43 3.54 3.50 3.45 3.30 3.17 2.94 2.72 2.70 2.57 2.32 2.19 2.00
1.96 2.10 2.32 2.58 2.92 3.27 3.58 3.92 4.45 5.12 5.57 5.93 6.29 6.47 6.50 6.35 6.01 5.54 5.23 4.90 4.56 4.21 3.88 3.55 3.52 3.49 3.34 3.14 3.07 3.04 3.04 3.09 3.14 3.19 3.09 2.98 2.89 2.79 2.79 2.69 2.48 2.35 2.16
1.92 2.23 2.36 2.59 2.84 3.17 3.54 3.89 4.29 4.82 5.10 5.19 5.36 5.64 5.82 5.78 5.62 5.37 5.04 4.62 4.16 3.71 3.43 3.19 3.08 3.02 2.97 2.87 2.78 2.76 2.64 2.57 2.64 2.62 2.71 2.72 2.61 2.50 2.61 2.74 2.61 2.37 2.22
2.14 2.28 2.32 2.53 2.85 3.08 3.27 3.65 3.86 4.38 4.63 4.50 4.61 4.90 5.12 5.05 4.87 4.62 4.15 3.74 3.43 3.18 2.93 2.81 2.60 2.40 2.30 2.25 2.37 2.39 2.32 2.28 2.25 2.16 2.41 2.48 2.38 2.36 2.40 2.48 2.71 2.67 2.43
2.18 2.29 2.20 2.31 2.56 2.85 3.04 3.22 3.38 3.75 3.99 3.95 4.01 4.03 4.02 3.99 3.89 3.65 3.29 2.95 2.74 2.52 2.43 2.34 2.27 2.18 2.06 2.02 2.04 2.07 2.13 2.12 2.04 2.04 2.17 2.16 2.11 2.16 2.19 2.28 2.47 2.76 2.71
1.92 2.02 2.09 2.20 2.14 2.23 2.55 2.82 2.90 3.02 3.14 3.14 3.15 3.16 3.22 3.26 3.16 2.88 2.54 2.41 2.35 2.23 2.11 2.04 1.97 1.97 1.91 1.89 1.96 1.93 1.96 2.02 1.92 1.89 1.89 1.85 1.81 1.93 1.93 2.05 2.16 2.36 2.61
1.77 1.90 2.01 2.07 1.96 1.90 2.02 2.28 2.54 2.63 2.69 2.77 2.80 2.70 2.67 2.58 2.52 2.38 2.14 2.11 2.10 1.99 1.89 1.81 1.76 1.71 1.71 1.70 1.75 1.69 1.64 1.62 1.59 1.51 1.50 1.54 1.64 1.80 1.79 1.81 1.94 2.15 2.41
1.92 1.96 2.14 2.09 1.97 2.03 2.03 2.04 2.21 2.30 2.37 2.44 2.55 2.57 2.49 2.28 2.18 2.10 1.98 1.88 1.81 1.77 1.74 1.61 1.56 1.52 1.47 1.44 1.41 1.41 1.42 1.41 1.39 1.41 1.48 1.47 1.54 1.68 1.71 1.78 1.83 1.98 2.25
2.25 2.22 2.27 2.19 2.09 2.07 1.95 1.82 1.89 2.03 2.15 2.27 2.30 2.25 2.17 2.04 1.93 1.92 1.92 1.80 1.71 1.61 1.56 1.53 1.49 1.43 1.44 1.35 1.25 1.25 1.33 1.29 1.26 1.34 1.41 1.47 1.72 1.73 1.72 1.79 1.83 1.91 2.01
2.45 2.38 2.36 2.33 2.23 2.14 1.97 1.83 1.80 1.79 1.76 1.90 2.03 2.02 1.99 1.95 1.86 1.75 1.72 1.69 1.65 1.57 1.51 1.52 1.45 1.39 1.37 1.35 1.30 1.26 1.32 1.34 1.30 1.32 1.39 1.49 1.68 1.79 1.89 1.82 1.91 1.98 2.11
2.55 2.48 2.53 2.46 2.42 2.39 2.24 2.11 1.95 1.82 1.76 1.75 1.74 1.82 1.94 1.93 1.86 1.78 1.74 1.69 1.60 1.49 1.49 1.48 1.41 1.40 1.37 1.29 1.31 1.30 1.30 1.39 1.42 1.38 1.35 1.37 1.50 1.63 1.64 1.50 1.63 1.84 2.10
2.58 2.63 2.76 2.71 2.65 2.60 2.43 2.28 2.13 1.88 1.76 1.75 1.74 1.77 1.82 1.80 1.73 1.69 1.64 1.59 1.54 1.53 1.51 1.48 1.44 1.39 1.13 1.21 1.24 1.23 1.31 1.39 1.40 1.41 1.42 1.34 1.27 1.22 1.21 1.24 1.32 1.52 1.82
2.90 2.91 2.83 2.82 2.77 2.72 2.75 2.73 2.47 2.17 2.04 1.94 1.79 1.75 1.69 1.62 1.58 1.47 1.44 1.52 1.53 1.51 1.45 1.42 1.43 1.37 1.23 1.23 1.15 1.17 1.30 1.43 1.52 1.59 1.60 1.32 1.12 1.21 1.18 1.24 1.30 1.41 1.59
2.80 2.84 2.76 2.78 2.77 2.73 2.72 2.72 2.64 2.42 2.14 1.99 1.79 1.64 1.61 1.56 1.56 1.53 1.50 1.55 1.57 1.49 1.48 1.45 1.42 1.39 1.27 1.22 1.12 1.16 1.23 1.39 1.43 1.46 1.50 1.51 1.40 1.29 1.34 1.39 1.43 1.52 1.64
2.63 2.72 2.79 2.81 2.79 2.72 2.56 2.48 2.39 2.32 2.22 1.98 1.71 1.54 1.52 1.48 1.47 1.49 1.49 1.53 1.56 1.48 1.43 1.42 1.46 1.51 1.43 1.28 1.15 1.09 1.10 1.24 1.30 1.28 1.26 1.24 1.27 1.37 1.54 1.65 1.84 1.91 1.99
2.59 2.74 2.82 2.86 2.83 2.78 2.48 2.32 2.20 2.06 1.89 1.63 1.48 1.42 1.44 1.38 1.34 1.40 1.45 1.48 1.52 1.48 1.44 1.40 1.45 1.45 1.35 1.18 1.01 0.97 0.98 1.14 1.23 1.32 1.29 1.16 1.08 1.25 1.42 1.63 1.95 2.08 2.17
2.54 2.64 2.68 2.70 2.63 2.60 2.38 2.26 2.05 1.89 1.58 1.35 1.30 1.35 1.37 1.32 1.26 1.30 1.35 1.42 1.41 1.43 1.45 1.37 1.35 1.29 1.14 1.07 0.95 0.92 0.92 1.07 1.20 1.23 1.26 1.21 1.12 1.17 1.41 1.62 1.82 1.97 2.07
2.35 2.44 2.50 2.50 2.39 2.28 2.17 2.05 1.87 1.60 1.40 1.28 1.23 1.31 1.39 1.23 1.12 1.21 1.21 1.25 1.42 1.38 1.36 1.38 1.28 1.13 1.06 0.93 0.87 0.86 0.85 0.93 1.13 1.29 1.28 1.30 1.27 1.27 1.46 1.60 1.82 2.05 2.16
2.09 2.15 2.06 1.99 2.02 1.94 1.88 1.79 1.59 1.39 1.30 1.33 1.37 1.37 1.35 1.28 1.26 1.28 1.23 1.26 1.35 1.36 1.30 1.27 1.18 1.05 1.00 0.91 0.87 0.87 0.89 0.93 1.03 1.22 1.30 1.33 1.32 1.37 1.62 1.80 2.00 2.17 2.24
1.72 1.80 1.77 1.71 1.73 1.65 1.55 1.49 1.35 1.29 1.30 1.35 1.45 1.54 1.41 1.27 1.27 1.34 1.23 1.22 1.21 1.24 1.22 1.21 1.19 1.12 1.06 0.94 0.87 0.90 0.96 1.00 1.02 1.12 1.30 1.41 1.45 1.56 1.82 2.04 2.23 2.30 2.21
1.46 1.46 1.56 1.59 1.50 1.43 1.36 1.29 1.21 1.20 1.34 1.39 1.36 1.43 1.37 1.32 1.32 1.30 1.16 1.09 1.06 1.11 1.19 1.20 1.21 1.18 1.08 1.00 1.01 0.94 0.90 0.94 0.97 1.07 1.25 1.42 1.56 1.73 1.92 2.09 2.16 2.14 2.04
1.35 1.39 1.44 1.42 1.36 1.31 1.24 1.18 1.11 1.16 1.33 1.40 1.36 1.29 1.25 1.26 1.21 1.25 1.23 1.16 1.10 1.08 1.03 1.04 0.99 0.95 1.00 1.00 0.96 0.90 0.90 0.92 0.98 1.03 1.25 1.44 1.55 1.72 1.89 2.01 2.02 1.95 1.85